Flag for Germany Weather past 2 weeks in Lehrte, Lower Saxony, Germany

Now
42 °F

Scattered clouds.


Feels Like: 38 °F
Forecast: 36 / 47 °F
Wind: 6 mph from Southwest

Location: Hannover

Current Time: Feb 28, 2015 at 1:55:38 PM

Latest Report: Feb 28, 2015 at 1:00 PM


Visibility: 19 mi

Pressure: 30.09 "Hg

Humidity: 63%

Dew point: 30 °F

Location of LehrteLocation

Historic Weather in Lehrte — Graph

°F

Lehrte temperature yesterday

Maximum temperature yesterday: 44 °F (at 1:00 AM)
Minimum temperature yesterday: 33 °F (at 11:00 PM)
Average temperature yesterday: 40 °F

Past Weeks' High & Low Weather Summary

 TemperatureHumidityPressure
High51 °F (Feb 14, 4:00 PM)100% (Feb 18, 1:00 AM)30.74 "Hg (Feb 18, 1:00 AM)
Low27 °F (Feb 17, 6:00 AM)51% (Feb 22, 3:00 PM)29.32 "Hg (Feb 21, 7:00 AM)
Average38 °F80%29.98 "Hg
* Reported Feb 13 12:00 Noon — Feb 28 12:00 Noon, Lehrte, Weather by CustomWeather, © 2015

Note: Actual official high and low records may vary slightly from our data, if they occured in-between our weather recording intervals... More about our weather records

Advertising

Lehrte weather history for previous 24 hours

 ConditionsComfort  
Time TempWeatherWind HumidityBarometerVisibility
12:00 PM
Sat, Feb 28
39 °FPassing clouds.5 mph75%30.11 "Hg12 mi
11:00 AM37 °FOvercast.6 mph81%30.14 "Hg11 mi
10:00 AM37 °FPassing clouds.5 mph81%30.14 "Hg12 mi
9:00 AM35 °FPassing clouds.5 mph85%30.14 "Hg11 mi
8:00 AM33 °FScattered clouds.2 mph91%30.13 "Hg12 mi
7:00 AM33 °FOvercast.2 mph93%30.13 "Hg9 mi
6:00 AM32 °FFog.2 mph95%30.12 "Hg9 mi
5:00 AM32 °FPassing clouds.2 mph93%30.12 "Hg9 mi
3:00 AM30 °FPassing clouds.2 mph93%30.13 "Hg16 mi
2:00 AM33 °FPassing clouds.2 mph91%30.11 "Hg16 mi
1:00 AM34 °FPassing clouds.2 mph89%30.11 "Hg16 mi
12:00 AM34 °FPassing clouds.3 mph90%30.11 "Hg16 mi
11:00 PM
Fri, Feb 27
33 °FOvercast.3 mph94%30.11 "Hg12 mi
9:00 PM35 °FPassing clouds.3 mph92%30.08 "Hg16 mi
8:00 PM36 °FPassing clouds.5 mph93%30.05 "Hg16 mi
7:00 PM37 °FOvercast.3 mph91%30.03 "Hg16 mi
6:00 PM40 °FOvercast.3 mph90%30.00 "Hg16 mi
5:00 PM41 °FLight rain. Overcast.6 mph90%29.98 "Hg9 mi
3:00 PM42 °FLight rain. Overcast.5 mph91%29.93 "Hg9 mi
2:00 PM42 °FLight rain. Low clouds.3 mph92%29.91 "Hg7 mi
1:00 PM41 °FLight rain. Low clouds.5 mph91%29.90 "Hg9 mi
Weather by CustomWeather, © 2015

See weather overviewHow to use our weather pages